| time (UTC) | temp C | wind direction | speed KPH | gust KPH | rain 1hr cm | rain 24hr cm | rain mn cm | humidity % | barometer mb |
| 20260906223040 | 36 | 222 | 1.6 | 8.0 | 0.00 | 0.00 | 0.00 | 28 | 1010.5 |
| 20260906221547 | 36 | 219 | 1.6 | 11.3 | 0.00 | 0.00 | 0.00 | 27 | 1010.6 |
| 20260906220046 | 36 | 221 | 3.2 | 6.4 | 0.00 | 0.00 | 0.00 | 27 | 1010.5 |
| 20260906214543 | 36 | 275 | 1.6 | 9.7 | 0.00 | 0.00 | 0.00 | 26 | 1010.7 |
| 20260906213047 | 36 | 202 | 3.2 | 9.7 | 0.00 | 0.00 | 0.00 | 27 | 1011.0 |
| 20260906211542 | 37 | 252 | 1.6 | 6.4 | 0.00 | 0.00 | 0.00 | 27 | 1011.1 |
| 20260906210039 | 36 | 194 | 1.6 | 6.4 | 0.00 | 0.00 | 0.00 | 28 | 1011.4 |
| 20260906204558 | 36 | 219 | 0.0 | 12.9 | 0.00 | 0.00 | 0.00 | 28 | 1011.6 |
| 20260906203039 | 36 | 222 | 1.6 | 11.3 | 0.00 | 0.00 | 0.00 | 29 | 1011.8 |
| 20260906201555 | 36 | 250 | 3.2 | 8.0 | 0.00 | 0.00 | 0.00 | 29 | 1012.0 |
| 20260906200043 | 36 | 215 | 1.6 | 6.4 | 0.00 | 0.00 | 0.00 | 31 | 1012.2 |
| 20260906194541 | 35 | 248 | 3.2 | 11.3 | 0.00 | 0.00 | 0.00 | 32 | 1012.2 |
| 20260906193047 | 35 | 241 | 3.2 | 6.4 | 0.00 | 0.00 | 0.00 | 32 | 1012.4 |
| 20260906191544 | 35 | 214 | 3.2 | 8.0 | 0.00 | 0.00 | 0.00 | 33 | 1012.6 |
| 20260906190044 | 35 | 227 | 4.8 | 9.7 | 0.00 | 0.00 | 0.00 | 33 | 1012.6 |
| 20260906184554 | 35 | 236 | 3.2 | 8.0 | 0.00 | 0.00 | 0.00 | 33 | 1012.8 |
| 20260906183045 | 34 | 220 | 4.8 | 9.7 | 0.00 | 0.00 | 0.00 | 34 | 1013.0 |
| 20260906181545 | 34 | 243 | 3.2 | 8.0 | 0.00 | 0.00 | 0.00 | 35 | 1013.3 |
| 20260906180057 | 34 | 210 | 1.6 | 9.7 | 0.00 | 0.00 | 0.00 | 35 | 1013.3 |
| 20260906174545 | 33 | 243 | 1.6 | 9.7 | 0.00 | 0.00 | 0.00 | 38 | 1013.6 |
| 20260906173045 | 33 | 234 | 3.2 | 9.7 | 0.00 | 0.00 | 0.00 | 39 | 1013.9 |
| 20260906171539 | 33 | 239 | 1.6 | 8.0 | 0.00 | 0.00 | 0.00 | 40 | 1014.0 |
| 20260906170044 | 32 | 221 | 1.6 | 6.4 | 0.00 | 0.00 | 0.00 | 41 | 1014.2 |
| 20260906164546 | 32 | 214 | 3.2 | 8.0 | 0.00 | 0.00 | 0.00 | 43 | 1014.3 |
| 20260906163045 | 32 | 221 | 3.2 | 6.4 | 0.00 | 0.00 | 0.00 | 42 | 1014.4 |
| 20260906161548 | 31 | 239 | 3.2 | 8.0 | 0.00 | 0.00 | 0.00 | 44 | 1014.3 |
| 20260906160050 | 31 | 219 | 1.6 | 4.8 | 0.00 | 0.00 | 0.00 | 46 | 1014.4 |
| 20260906154547 | 31 | 224 | 0.0 | 3.2 | 0.00 | 0.00 | 0.00 | 48 | 1014.3 |
| 20260906153042 | 30 | 32 | 1.6 | 4.8 | 0.00 | 0.00 | 0.00 | 50 | 1014.2 |
| 20260906151542 | 30 | 208 | 0.0 | 4.8 | 0.00 | 0.00 | 0.00 | 53 | 1014.0 |
| 20260906150046 | 30 | 208 | 0.0 | 4.8 | 0.00 | 0.00 | 0.00 | 54 | 1014.0 |
| 20260906144544 | 29 | 360 | 0.0 | 3.2 | 0.00 | 0.00 | 0.00 | 55 | 1013.9 |
| 20260906143043 | 28 | 0 | 0.0 | 1.6 | 0.00 | 0.00 | 0.00 | 56 | 1014.0 |
| 20260906141544 | 28 | 222 | 1.6 | 4.8 | 0.00 | 0.00 | 0.00 | 57 | 1013.9 |
| 20260906140043 | 28 | 198 | 0.0 | 1.6 | 0.00 | 0.00 | 0.00 | 59 | 1014.0 |
| 20260906134556 | 27 | 0 | 0.0 | 1.6 | 0.00 | 0.00 | 0.00 | 60 | 1014.0 |
| 20260906133039 | 27 | 0 | 0.0 | 0.0 | 0.00 | 0.00 | 0.00 | 62 | 1014.0 |
| 20260906131544 | 26 | 0 | 0.0 | 0.0 | 0.00 | 0.00 | 0.00 | 64 | 1013.9 |
| 20260906130045 | 25 | 0 | 0.0 | 0.0 | 0.00 | 0.00 | 0.00 | 67 | 1013.9 |
| 20260906124544 | 24 | 0 | 0.0 | 0.0 | 0.00 | 0.00 | 0.00 | 68 | 1013.8 |
| 20260906123046 | 24 | 0 | 0.0 | 0.0 | 0.00 | 0.00 | 0.00 | 68 | 1013.7 |
| 20260906121548 | 24 | 0 | 0.0 | 0.0 | 0.00 | 0.00 | 0.00 | 68 | 1013.6 |
| 20260906120053 | 24 | 0 | 0.0 | 0.0 | 0.00 | 0.00 | 0.00 | 67 | 1013.4 |
| 20260906114539 | 24 | 0 | 0.0 | 0.0 | 0.00 | 0.00 | 0.00 | 67 | 1013.3 |
| 20260906113049 | 24 | 0 | 0.0 | 0.0 | 0.00 | 0.00 | 0.00 | 67 | 1013.1 |
| 20260906111549 | 24 | 0 | 0.0 | 0.0 | 0.00 | 0.00 | 0.00 | 67 | 1013.0 |
| 20260906110041 | 24 | 0 | 0.0 | 0.0 | 0.00 | 0.00 | 0.00 | 67 | 1012.9 |
| 20260906104539 | 24 | 0 | 0.0 | 0.0 | 0.00 | 0.00 | 0.00 | 67 | 1012.7 |
| 20260906103038 | 25 | 0 | 0.0 | 0.0 | 0.00 | 0.00 | 0.00 | 67 | 1012.7 |
| 20260906101546 | 25 | 0 | 0.0 | 0.0 | 0.00 | 0.00 | 0.00 | 65 | 1012.8 |
| 20260906100041 | 25 | 0 | 0.0 | 0.0 | 0.00 | 0.00 | 0.00 | 64 | 1012.5 |
| 20260906094542 | 25 | 0 | 0.0 | 0.0 | 0.00 | 0.00 | 0.00 | 63 | 1012.3 |
| 20260906093041 | 26 | 0 | 0.0 | 0.0 | 0.00 | 0.00 | 0.00 | 62 | 1012.2 |
| 20260906091544 | 26 | 0 | 0.0 | 0.0 | 0.00 | 0.00 | 0.00 | 61 | 1012.1 |
| 20260906090043 | 26 | 0 | 0.0 | 0.0 | 0.00 | 0.00 | 0.00 | 59 | 1012.2 |
| 20260906084548 | 27 | 0 | 0.0 | 0.0 | 0.00 | 0.00 | 0.00 | 59 | 1012.0 |
| 20260906083041 | 27 | 0 | 0.0 | 1.6 | 0.00 | 0.00 | 0.00 | 58 | 1012.1 |
| 20260906081543 | 27 | 0 | 0.0 | 4.8 | 0.00 | 0.00 | 0.00 | 58 | 1012.1 |
| 20260906080042 | 27 | 0 | 0.0 | 3.2 | 0.00 | 0.00 | 0.00 | 59 | 1012.1 |
| 20260906074540 | 27 | 0 | 0.0 | 1.6 | 0.00 | 0.00 | 0.00 | 60 | 1012.2 |
| 20260906073043 | 26 | 134 | 0.0 | 1.6 | 0.00 | 0.00 | 0.00 | 61 | 1012.3 |
| 20260906071557 | 26 | 0 | 0.0 | 0.0 | 0.00 | 0.00 | 0.00 | 61 | 1012.3 |
| 20260906070039 | 26 | 0 | 0.0 | 0.0 | 0.00 | 0.00 | 0.00 | 60 | 1012.3 |
| 20260906064539 | 26 | 0 | 0.0 | 0.0 | 0.00 | 0.00 | 0.00 | 59 | 1012.5 |
| 20260906063041 | 26 | 0 | 0.0 | 0.0 | 0.00 | 0.00 | 0.00 | 58 | 1012.4 |
| 20260906061540 | 26 | 0 | 0.0 | 0.0 | 0.00 | 0.00 | 0.00 | 58 | 1012.4 |
| 20260906060045 | 27 | 0 | 0.0 | 0.0 | 0.00 | 0.00 | 0.00 | 57 | 1012.6 |
| 20260906054545 | 27 | 0 | 0.0 | 0.0 | 0.00 | 0.00 | 0.00 | 55 | 1012.5 |
| 20260906053050 | 27 | 0 | 0.0 | 0.0 | 0.00 | 0.00 | 0.00 | 55 | 1012.4 |
| 20260906051540 | 27 | 0 | 0.0 | 0.0 | 0.00 | 0.00 | 0.00 | 53 | 1012.6 |
| 20260906050045 | 28 | 0 | 0.0 | 0.0 | 0.00 | 0.00 | 0.00 | 52 | 1012.6 |
| 20260906044543 | 28 | 0 | 0.0 | 0.0 | 0.00 | 0.00 | 0.00 | 51 | 1012.5 |
| 20260906043041 | 28 | 0 | 0.0 | 0.0 | 0.00 | 0.00 | 0.00 | 50 | 1012.3 |
| 20260906041538 | 29 | 0 | 0.0 | 1.6 | 0.00 | 0.00 | 0.00 | 49 | 1012.3 |
| 20260906040043 | 30 | 0 | 0.0 | 4.8 | 0.00 | 0.00 | 0.00 | 48 | 1012.2 |
| 20260906034546 | 30 | 0 | 0.0 | 1.6 | 0.00 | 0.00 | 0.00 | 47 | 1012.4 |
| 20260906033038 | 30 | 0 | 0.0 | 3.2 | 0.00 | 0.00 | 0.00 | 45 | 1012.2 |
| 20260906031538 | 31 | 86 | 0.0 | 4.8 | 0.00 | 0.00 | 0.00 | 44 | 1012.5 |
| 20260906030039 | 31 | 0 | 1.6 | 9.7 | 0.00 | 0.00 | 0.00 | 43 | 1012.5 |
| 20260906024556 | 31 | 185 | 0.0 | 8.0 | 0.00 | 0.00 | 0.00 | 43 | 1012.4 |
| 20260906023042 | 31 | 125 | 0.0 | 6.4 | 0.00 | 0.00 | 0.00 | 42 | 1012.0 |
| 20260906021540 | 31 | 103 | 0.0 | 4.8 | 0.00 | 0.00 | 0.00 | 42 | 1011.8 |
| 20260906020049 | 32 | 0 | 0.0 | 9.7 | 0.00 | 0.00 | 0.00 | 41 | 1011.5 |
| 20260906014551 | 32 | 17 | 3.2 | 16.1 | 0.00 | 0.00 | 0.00 | 39 | 1011.4 |
| 20260906013044 | 33 | 40 | 1.6 | 9.7 | 0.00 | 0.00 | 0.00 | 37 | 1011.1 |
| 20260906011542 | 32 | 0 | 0.0 | 0.0 | 0.00 | 0.00 | 0.00 | 36 | 1010.4 |
| 20260906010042 | 33 | 0 | 0.0 | 1.6 | 0.00 | 0.00 | 0.00 | 34 | 1010.3 |
| 20260906004544 | 34 | 0 | 0.0 | 1.6 | 0.00 | 0.00 | 0.00 | 32 | 1010.3 |
| 20260906003050 | 34 | 0 | 0.0 | 3.2 | 0.00 | 0.00 | 0.00 | 31 | 1010.3 |
| 20260906001541 | 35 | 0 | 0.0 | 1.6 | 0.00 | 0.00 | 0.00 | 29 | 1010.4 |
| 20260906000042 | 35 | 0 | 0.0 | 3.2 | 0.00 | 0.00 | 0.00 | 29 | 1010.2 |
| 20260905234545 | 35 | 217 | 0.0 | 3.2 | 0.00 | 0.00 | 0.00 | 27 | 1010.2 |
| 20260905233040 | 35 | 221 | 0.0 | 3.2 | 0.00 | 0.00 | 0.00 | 27 | 1010.2 |
| 20260905231540 | 35 | 0 | 0.0 | 3.2 | 0.00 | 0.00 | 0.00 | 27 | 1010.2 |
| 20260905230039 | 35 | 0 | 0.0 | 4.8 | 0.00 | 0.00 | 0.00 | 27 | 1010.1 |